Torna al catalogo

SES 18

AttivoComunicazioniGEO
NORAD 55970·PAYLOAD·🇱🇺 Luxembourg

Lanciato Mar 17, 2023 da Cape Canaveral Space Force Station

Loading…

TLE

AggiornatoSource: CelesTrak SupGP

Epoca: Sep 13, 2026, 23:30 UTC

1 55970C 23038A   26256.97916667 -.00000011  00000+0  00000+0 0  2561
2 55970   0.0513 272.9544 0001977 306.1820  23.2214  1.00272100    12

Traccia SES 18 in tempo reale con AllMySat

Download on the App Store